| time (UTC) | temp C | wind direction | speed KPH | gust KPH | rain 1hr cm | rain 24hr cm | rain mn cm | humidity % | barometer mb |
| 20260505024525 | 13 | 79 | 0.0 | 0.0 | 0.00 | 0.00 | 0.00 | 66 | 1011.2 |
| 20260505023021 | 13 | 79 | 0.0 | 0.0 | 0.00 | 0.00 | 0.00 | 67 | 1011.3 |
| 20260505021516 | 14 | 79 | 0.0 | 0.0 | 0.00 | 0.00 | 0.00 | 65 | 1011.3 |
| 20260505020017 | 14 | 79 | 0.0 | 0.0 | 0.00 | 0.00 | 0.00 | 63 | 1011.2 |
| 20260505014512 | 15 | 79 | 0.0 | 0.0 | 0.00 | 0.00 | 0.00 | 61 | 1011.0 |
| 20260505013027 | 15 | 79 | 0.0 | 0.0 | 0.00 | 0.00 | 0.00 | 58 | 1011.0 |
| 20260505011531 | 16 | 79 | 0.0 | 0.0 | 0.00 | 0.00 | 0.00 | 55 | 1011.0 |
| 20260505010027 | 17 | 79 | 0.0 | 1.6 | 0.00 | 0.00 | 0.00 | 52 | 1010.8 |
| 20260505004533 | 17 | 79 | 0.0 | 3.2 | 0.00 | 0.00 | 0.00 | 49 | 1010.7 |
| 20260505003021 | 17 | 82 | 0.0 | 3.2 | 0.00 | 0.00 | 0.00 | 47 | 1010.5 |
| 20260505001518 | 18 | 73 | 0.0 | 3.2 | 0.00 | 0.00 | 0.00 | 44 | 1010.4 |
| 20260505000027 | 19 | 221 | 0.0 | 3.2 | 0.00 | 0.00 | 0.00 | 44 | 1010.2 |
| 20260504234516 | 20 | 243 | 0.0 | 4.8 | 0.00 | 0.00 | 0.00 | 41 | 1010.1 |
| 20260504233027 | 20 | 170 | 1.6 | 4.8 | 0.00 | 0.00 | 0.00 | 41 | 1010.1 |
| 20260504231528 | 20 | 195 | 1.6 | 6.4 | 0.00 | 0.00 | 0.00 | 39 | 1010.1 |
| 20260504230028 | 20 | 152 | 0.0 | 8.0 | 0.00 | 0.00 | 0.00 | 39 | 1010.0 |
| 20260504224528 | 21 | 243 | 1.6 | 8.0 | 0.00 | 0.00 | 0.00 | 38 | 1010.0 |
| 20260504223023 | 21 | 229 | 1.6 | 19.3 | 0.00 | 0.00 | 0.00 | 37 | 1010.1 |
| 20260504221522 | 21 | 248 | 1.6 | 6.4 | 0.00 | 0.00 | 0.00 | 39 | 1010.1 |
| 20260504220018 | 21 | 290 | 1.6 | 19.3 | 0.00 | 0.00 | 0.00 | 36 | 1010.2 |
| 20260504214527 | 22 | 193 | 3.2 | 12.9 | 0.00 | 0.00 | 0.00 | 35 | 1010.2 |
| 20260504213047 | 21 | 123 | 1.6 | 8.0 | 0.00 | 0.00 | 0.00 | 37 | 1010.2 |
| 20260504211516 | 21 | 224 | 1.6 | 8.0 | 0.00 | 0.00 | 0.00 | 35 | 1010.2 |
| 20260504210011 | 22 | 162 | 1.6 | 9.7 | 0.00 | 0.00 | 0.00 | 36 | 1010.2 |
| 20260504204508 | 22 | 253 | 3.2 | 12.9 | 0.00 | 0.00 | 0.00 | 36 | 1010.3 |
| 20260504203008 | 22 | 53 | 1.6 | 9.7 | 0.00 | 0.00 | 0.00 | 34 | 1010.5 |
| 20260504201531 | 22 | 190 | 3.2 | 16.1 | 0.00 | 0.00 | 0.00 | 35 | 1010.6 |
| 20260504200024 | 21 | 165 | 3.2 | 11.3 | 0.00 | 0.00 | 0.00 | 35 | 1010.8 |
| 20260504194521 | 22 | 219 | 3.2 | 12.9 | 0.00 | 0.00 | 0.00 | 34 | 1010.8 |
| 20260504193016 | 21 | 218 | 0.0 | 9.7 | 0.00 | 0.00 | 0.00 | 36 | 1010.9 |
| 20260504191518 | 21 | 174 | 3.2 | 14.5 | 0.00 | 0.00 | 0.00 | 37 | 1011.0 |
| 20260504190013 | 21 | 157 | 3.2 | 11.3 | 0.00 | 0.00 | 0.00 | 35 | 1011.1 |
| 20260504184511 | 21 | 167 | 3.2 | 22.5 | 0.00 | 0.00 | 0.00 | 33 | 1011.4 |
| 20260504183028 | 21 | 128 | 1.6 | 14.5 | 0.00 | 0.00 | 0.00 | 34 | 1011.5 |
| 20260504181527 | 21 | 159 | 3.2 | 19.3 | 0.00 | 0.00 | 0.00 | 36 | 1011.8 |
| 20260504180024 | 21 | 179 | 3.2 | 9.7 | 0.00 | 0.00 | 0.00 | 35 | 1011.9 |
| 20260504174522 | 21 | 281 | 0.0 | 11.3 | 0.00 | 0.00 | 0.00 | 38 | 1012.1 |
| 20260504173031 | 21 | 293 | 3.2 | 14.5 | 0.00 | 0.00 | 0.00 | 33 | 1012.4 |
| 20260504171522 | 21 | 232 | 1.6 | 9.7 | 0.00 | 0.00 | 0.00 | 32 | 1012.6 |
| 20260504081515 | 4 | 210 | 0.0 | 0.0 | 0.00 | 0.00 | 0.00 | 87 | 1015.3 |
| 20260504044536 | 5 | 208 | 0.0 | 0.0 | 0.00 | 0.00 | 0.00 | 79 | 1015.2 |
| 20260504043021 | 5 | 208 | 0.0 | 0.0 | 0.00 | 0.00 | 0.00 | 79 | 1014.9 |
| 20260504041529 | 5 | 208 | 0.0 | 0.0 | 0.00 | 0.00 | 0.00 | 78 | 1014.8 |
| 20260504040032 | 5 | 208 | 0.0 | 0.0 | 0.00 | 0.00 | 0.00 | 75 | 1014.6 |
| 20260504034538 | 6 | 208 | 0.0 | 0.0 | 0.00 | 0.00 | 0.00 | 75 | 1014.5 |
| 20260504033036 | 6 | 208 | 0.0 | 0.0 | 0.00 | 0.00 | 0.00 | 74 | 1014.5 |
| 20260504031503 | 6 | 208 | 0.0 | 0.0 | 0.00 | 0.00 | 0.00 | 71 | 1014.4 |
| 20260504030004 | 6 | 208 | 0.0 | 0.0 | 0.00 | 0.00 | 0.00 | 70 | 1014.4 |